Location: San Martino di Castrozza
(46.2667°N, 11.8000°E)
Time: 16:17:40
(UTC+00:00)

Cosmos 990 Rocket - Pass Details

Date: 23 April 2021
Orbit: 746 x 770 km, 74.0° (Epoch: 13 May)

Event Time Altitude Azimuth Distance (km) Brightness Sun altitude
Exits shadow 01:33:48 53° 258° (WSW) 933 4.1 -23.0°
Maximum altitude 01:34:34 59° 295° (WNW) 879 4.1 -22.9°
Drops below altitude 10° 01:39:45 10° 15° (NNE) 2,308 7.4 -22.4°
Sets 01:42:11 0° 20° (NNE) 3,242 8.5 -22.1°
